Location: Rancho Del Sol Observatory
(38.7214°N, 120.6350°W)
Time: 16:34:13
(UTC-08:00)

Courier 1B Rocket - Pass Details

Date: 29 January 2020
Orbit: 920 x 1202 km, 28.2° (Epoch: 24 February)

Event Time Altitude Azimuth Distance (km) Brightness Sun altitude
Rises 11:23:28 0° 250° (WSW) 4,029 8.3 32.1°
Reaches altitude 10° 11:26:35 10° 242° (WSW) 3,034 7.8 32.2°
Maximum altitude 11:33:15 36° 179° (S) 1,664 8.7 32.5°
Drops below altitude 10° 11:39:32 10° 115° (ESE) 2,850 8.0 32.7°
Sets 11:42:23 0° 107° (ESE) 3,758 8.4 32.8°
